Regional Weather Roundup
Issued by NWS Green Bay, WI

Home | Current Version | Previous Version | Text Only | Print | Product List | Glossary On
Versions: 1 2 3 4 5 6 7 8 9 10 11 12 13 14 15 16 17 18 19 20 21 22 23 24 25 26 27 28 29 30 31 32 33 34 35 36 37 38 39 40 41 42 43 44 45 46 47 48 49 50
000
ASUS43 KGRB 250111
RWRGRB

NORTH-CENTRAL AND NORTHEAST WISCONSIN REGIONAL WEATHER ROUNDUP
NATIONAL WEATHER SERVICE GREEN BAY WI
800 PM CDT FRI MAR 24 2017

WIZ005-009-010>012-018-019-250200-
NORTH CENTRAL WISCONSIN

CITY           SKY/WX    TMP DP  RH WIND       PRES   REMARKS
IRONWOOD       CLOUDY    34  30  86 E8        30.20R
MANITOWISH WTR CLOUDY    33  33 100 N6        30.16R
ARBOR VITAE    CLOUDY    37  35  93 N3        30.14R
EAGLE RIVER    CLOUDY    34  33  96 NE8       30.13S
LAND O LAKES   CLOUDY    34  34 100 NE5       30.15F FOG
RHINELANDER    CLOUDY    36  33  89 NE8       30.14R
PHILLIPS       CLOUDY    35  33  92 NE8       30.14R
ANTIGO         CLOUDY    34  33  96 NE9       30.11S
TOMAHAWK       CLOUDY    34  32  91 NE6       30.15R
MERRILL        CLOUDY    36  35  95 NE7       30.13R
$$

WIZ013-073-250200-
NORTHEAST WISCONSIN

CITY           SKY/WX    TMP DP  RH WIND       PRES   REMARKS
IRON MOUNTAIN  CLOUDY    35  30  82 N7        30.14S
MARINETTE        N/A    N/A N/A N/A MISG        N/A
OCONTO         CLOUDY    36  35  96 N5        30.15R
$$

WIZ017-030-035>037-045-250200-
CENTRAL WISCONSIN

CITY           SKY/WX    TMP DP  RH WIND       PRES   REMARKS
MEDFORD        CLOUDY    36  33  90 NE8       30.12R
WAUSAU         CLOUDY    37  35  92 NE3       30.10R
MOSINEE        CLOUDY    37  37 100 NE6       30.12R
MARSHFIELD     CLOUDY    37  35  92 NE9       30.10R
WISC RAPIDS    CLOUDY    38  37  97 NE6       30.12R
STEVENS POINT  DRIZZLE   35  35 100 NE3       30.12R
WAUPACA        LGT RAIN  38  36  91 NE7       30.11S
SHAWANO        CLOUDY    38  36  92 NE6       30.13R
CLINTONVILLE   DRIZZLE   36  36 100 NE7       30.12R
WAUTOMA        LGT RAIN  37  35  92 NE7       30.11R
$$

WIZ038-039-048-051-250200-
FOX VALLEY

CITY           SKY/WX    TMP DP  RH WIND       PRES   REMARKS
NWS GREEN BAY  LGT RAIN  36  36 100 NE10      30.13R
APPLETON       LGT RAIN  36  36 100 NE12      30.10R
OSHKOSH        LGT RAIN  36  34  92 NE15      30.08S FOG
FOND DU LAC    LGT RAIN  37  33  85 NE12      30.10R
$$

WIZ022-050-052-250200-
EAST CENTRAL WISCONSIN

CITY           SKY/WX    TMP DP  RH WIND       PRES   REMARKS
EPHRAIM        CLOUDY    34  34 100 NE12      30.13S FOG
WASHINGTON ISL CLOUDY    34  32  94 N10       30.15S
STURGEON BAY   CLOUDY    35  34  96 N10       30.14R
MANITOWOC      RAIN      36  34  92 N12       30.11R
SHEBOYGAN      LGT RAIN  36  33  89 NE16      30.09R
$$

LMZ563-521-522-541>543-250200-
LAKESHORE

STATION/POSITION TIME  TEMP    WIND        PRES    VSBY  WAVE
                       AIR SEA DIR/SP/G                  HT/PER
                 (UTC) (F)     (DEG/KT/KT) (MB)    (MI)  (FT/S)
SHEBOYGAN LKSHOR 0100   36      10/ 19/ 21 1019.6R
KEWAUNEE LKSHORE 0048   35      30/ 10/ 15 1019.5R
NORTHPORT PIER   0040   34     350/  9/ 13 1020.7R
SISTER BAY LKSHO 0036   35      20/  9/ 11   N/A
CHAMBERS ISLAND  0040   33     360/ 10/ 11 1020.3R
MENOMINEE LKSHOR 0048   33      10/  9/ 10 1020.0R
$$



USA.gov is the U.S. government's official web portal to all federal, state and local government web resources and services.